Kankakee, IL
on Wednesday, December 12, 2012

Wednesday
Previous Day Next Day
Daily Summary
 ActualAverageRecord
Temperature
Mean Temperature °F °F  
Max Temperature 44°F 37°F 64°F (2015)
Min Temperature 23°F 18°F -5°F (2013)
Degree Days
Heating Degree Days 32    
Moisture
Dew Point 27°F   
Average Humidity 79    
Maximum Humidity 92    
Minimum Humidity 56    
Precipitation
Precipitation 0.00 in in in ()
Wind
Wind Speed 7 mph   
Max Wind Speed 14 mph   
Max Gust Speed 18 mph   
Visibility 10 miles   
Events     
Averages and records for this station are not official NWS values.
Key: T is trace of precipitation, MM is missing value
Source: NWS Daily Summary
Seasonal Weather Averages
Time(CST)TemperatureDew PointHumidity Pressure Visibility Wind DirectionWind SpeedGust SpeedPrecipitationEvents Conditions
12:15 AM 27.5°F 24.3°F 88% 30.18 in 10.0 miles SW 9.2 mph - N/A   Clear
12:35 AM 27.9°F 23.9°F 85% 30.19 in 10.0 miles SW 8.1 mph - N/A   Clear
12:55 AM 27.3°F 23.7°F 86% 30.20 in 10.0 miles SW 5.8 mph - N/A   Clear
1:15 AM 26.2°F 23.2°F 88% 30.20 in 10.0 miles SW 4.6 mph - N/A   Clear
1:35 AM 26.6°F 23.0°F 86% 30.20 in 10.0 miles Calm Calm - N/A   Clear
1:55 AM 26.4°F 23.0°F 87% 30.21 in 10.0 miles SSW 4.6 mph - N/A   Clear
2:15 AM 25.5°F 22.5°F 88% 30.22 in 10.0 miles SSW 3.5 mph - N/A   Clear
2:35 AM 24.4°F 21.7°F 89% 30.22 in 10.0 miles South 4.6 mph - N/A   Clear
2:55 AM 24.8°F 22.5°F 91% 30.22 in 10.0 miles South 5.8 mph - N/A   Clear
3:15 AM 24.8°F 22.5°F 91% 30.22 in 10.0 miles South 4.6 mph - N/A   Clear
3:35 AM 24.8°F 22.3°F 90% 30.23 in 10.0 miles South 4.6 mph - N/A   Clear
3:55 AM 24.8°F 22.1°F 89% 30.23 in 10.0 miles South 3.5 mph - N/A   Clear
4:15 AM 24.3°F 21.9°F 91% 30.23 in 10.0 miles South 5.8 mph - N/A   Clear
4:35 AM 23.9°F 21.7°F 91% 30.24 in 10.0 miles South 4.6 mph - N/A   Clear
4:55 AM 24.3°F 22.1°F 91% 30.24 in 10.0 miles South 4.6 mph - N/A   Clear
5:15 AM 23.9°F 21.9°F 92% 30.24 in 10.0 miles South 5.8 mph - N/A   Clear
5:35 AM 24.6°F 22.1°F 90% 30.26 in 10.0 miles South 5.8 mph - N/A   Clear
5:55 AM 24.4°F 22.1°F 91% 30.26 in 10.0 miles South 5.8 mph - N/A   Clear
6:15 AM 24.3°F 21.9°F 91% 30.27 in 10.0 miles South 6.9 mph - N/A   Clear
6:35 AM 23.9°F 21.9°F 92% 30.27 in 10.0 miles South 6.9 mph - N/A   Clear
6:55 AM 24.3°F 21.9°F 91% 30.28 in 10.0 miles South 6.9 mph - N/A   Clear
7:15 AM 23.9°F 21.7°F 91% 30.29 in 10.0 miles South 6.9 mph - N/A   Clear
7:35 AM 24.4°F 21.9°F 90% 30.29 in 10.0 miles South 5.8 mph - N/A   Clear
7:55 AM 25.7°F 22.8°F 89% 30.30 in 10.0 miles South 6.9 mph - N/A   Clear
8:15 AM 27.3°F 23.5°F 86% 30.30 in 10.0 miles South 6.9 mph - N/A   Clear
8:35 AM 28.6°F 24.6°F 85% 30.31 in 10.0 miles South 5.8 mph - N/A   Clear
8:55 AM 30.7°F 25.9°F 82% 30.32 in 10.0 miles South 5.8 mph - N/A   Clear
9:15 AM 32.0°F 26.8°F 81% 30.32 in 10.0 miles South 5.8 mph - N/A   Clear
9:35 AM 33.6°F 28.0°F 80% 30.33 in 10.0 miles South 8.1 mph - N/A   Clear
9:55 AM 35.2°F 28.6°F 77% 30.34 in 10.0 miles South 6.9 mph - N/A   Clear
10:15 AM 37.2°F 29.7°F 74% 30.33 in 10.0 miles South 9.2 mph - N/A   Clear
10:35 AM 38.3°F 29.8°F 72% 30.33 in 10.0 miles South 9.2 mph - N/A   Clear
10:55 AM 39.2°F 30.2°F 70% 30.33 in 10.0 miles South 11.5 mph - N/A   Clear
11:15 AM 40.1°F 30.4°F 68% 30.32 in 10.0 miles South 11.5 mph - N/A   Clear
11:35 AM 41.5°F 30.4°F 65% 30.32 in 10.0 miles South 13.8 mph - N/A   Clear
11:55 AM 42.1°F 31.1°F 65% 30.31 in 10.0 miles South 11.5 mph - N/A   Clear
12:15 PM 43.2°F 30.9°F 62% 30.31 in 10.0 miles South 11.5 mph - N/A   Clear
12:35 PM 43.5°F 29.7°F 58% 30.31 in 10.0 miles South 13.8 mph 17.3 mph N/A   Clear
12:55 PM 43.9°F 29.7°F 57% 30.30 in 10.0 miles South 11.5 mph 18.4 mph N/A   Clear
1:15 PM 44.2°F 29.7°F 57% 30.29 in 10.0 miles South 11.5 mph - N/A   Clear
1:35 PM 44.6°F 29.8°F 56% 30.29 in 10.0 miles South 13.8 mph - N/A   Clear
1:55 PM 44.1°F 30.4°F 59% 30.29 in 10.0 miles South 10.4 mph - N/A   Clear
2:15 PM 43.9°F 30.4°F 59% 30.28 in 10.0 miles South 11.5 mph - N/A   Clear
2:35 PM 43.7°F 30.7°F 60% 30.28 in 10.0 miles South 11.5 mph - N/A   Clear
2:55 PM 43.2°F 30.7°F 62% 30.28 in 10.0 miles South 11.5 mph - N/A   Clear
3:15 PM 42.6°F 30.4°F 62% 30.28 in 10.0 miles South 11.5 mph 16.1 mph N/A   Clear
3:35 PM 41.9°F 30.7°F 65% 30.28 in 10.0 miles South 9.2 mph - N/A   Clear
3:55 PM 40.6°F 30.2°F 66% 30.28 in 10.0 miles SSE 9.2 mph - N/A   Clear
4:15 PM 39.2°F 30.2°F 70% 30.29 in 10.0 miles South 8.1 mph - N/A   Clear
4:35 PM 37.8°F 29.8°F 73% 30.29 in 10.0 miles South 6.9 mph - N/A   Clear
4:55 PM 37.2°F 29.8°F 75% 30.29 in 10.0 miles SSE 5.8 mph - N/A   Clear
5:15 PM 37.4°F 30.0°F 75% 30.29 in 10.0 miles SSE 6.9 mph - N/A   Clear
5:35 PM 37.0°F 30.2°F 76% 30.29 in 10.0 miles SSE 9.2 mph - N/A   Clear
6:15 PM 36.3°F 30.0°F 78% 30.29 in 10.0 miles SSE 9.2 mph - N/A   Clear
6:35 PM 36.7°F 30.0°F 77% 30.30 in 10.0 miles SSE 6.9 mph - N/A   Clear
6:55 PM 36.0°F 29.8°F 78% 30.30 in 10.0 miles South 6.9 mph - N/A   Clear
7:15 PM 34.9°F 29.7°F 81% 30.31 in 10.0 miles South 8.1 mph - N/A   Clear
7:35 PM 34.5°F 29.7°F 82% 30.31 in 10.0 miles South 8.1 mph - N/A   Clear
7:55 PM 34.2°F 29.7°F 84% 30.32 in 10.0 miles SSE 6.9 mph - N/A   Clear
8:15 PM 34.7°F 29.3°F 81% 30.31 in 10.0 miles SSE 8.1 mph - N/A   Clear
8:35 PM 34.9°F 29.3°F 80% 30.31 in 10.0 miles SSE 9.2 mph - N/A   Clear
8:55 PM 35.1°F 28.8°F 78% 30.30 in 10.0 miles SSE 10.4 mph 16.1 mph N/A   Clear
9:15 PM 35.6°F 28.8°F 76% 30.30 in 10.0 miles SSE 10.4 mph 16.1 mph N/A   Clear
9:35 PM 32.0°F 27.9°F 85% 30.30 in 10.0 miles ESE 5.8 mph - N/A   Clear
9:55 PM 30.4°F 27.5°F 89% 30.31 in 10.0 miles SSE 3.5 mph - N/A   Clear
10:15 PM 32.0°F 27.5°F 83% 30.32 in 10.0 miles South 5.8 mph - N/A   Clear
10:35 PM 33.1°F 28.0°F 82% 30.31 in 10.0 miles South 9.2 mph - N/A   Clear
10:55 PM 33.4°F 28.2°F 81% 30.31 in 10.0 miles South 10.4 mph - N/A   Clear
11:15 PM 33.4°F 28.2°F 81% 30.31 in 10.0 miles South 12.7 mph - N/A   Clear
11:35 PM 33.1°F 28.2°F 82% 30.32 in 10.0 miles South 11.5 mph - N/A   Clear
11:55 PM 32.7°F 28.2°F 83% 30.31 in 10.0 miles South 10.4 mph - N/A   Clear
Astronomy
Sunrise:07:07 AM (CST) Moon Rise:06:11 AM (CST)12/12
Sunset:04:23 PM (CST) Moon Set:04:00 PM (CST)12/12
Moon Phase
Dec. 12 Dec. 13 Dec. 20 Dec. 28 Jan. 05

Copyright © 2016 The Weather Underground, Inc.